Hourly Data Report for March 24, 2006

TORONTO CITY
ONTARIO

43°40'00.000" N
79°24'00.000" W
112.50 m
6158355
71508
XTO

Download Data

Hourly Data (March 2006)
Hourly Data Report for March 24, 2006
TIME
LST
Temp Definition
°C
Dew Point Definition
°C
Rel Hum Definition
%
Precip. Amount Definition
mm

Wind Dir Definition
10's deg

Wind Spd Definition
km/h
Visibility Definition
km
Stn Press Definition
kPa
Hmdx Definition


Wind Chill Definition


Weather Definition


00:00 2.5 -2.8 68   LegendMM LegendMM   100.75     LegendNANA
01:00 2.1 -3.6 66   LegendMM LegendMM   100.75     LegendNANA
02:00 1.6 -4.0 66   LegendMM LegendMM   100.72     LegendNANA
03:00 1.0 -4.3 68   LegendMM LegendMM   100.67     LegendNANA
04:00 0.6 -4.1 71   LegendMM LegendMM   100.63     LegendNANA
05:00 0.4 -3.4 76   LegendMM LegendMM   100.63     LegendNANA
06:00 0.6 -3.0 77   LegendMM LegendMM   100.64     LegendNANA
07:00 1.0 -2.5 77   LegendMM LegendMM   100.66     LegendNANA
08:00 1.6 -2.5 74   LegendMM LegendMM   100.67     LegendNANA
09:00 2.5 -2.1 72   LegendMM LegendMM   100.65     LegendNANA
10:00 4.4 -2.1 63   LegendMM LegendMM   100.61     LegendNANA
11:00 4.6 -1.2 66   LegendMM LegendMM   100.56     LegendNANA
12:00 4.6 -1.5 65   LegendMM LegendMM   100.51     LegendNANA
13:00 5.2 -1.7 61   LegendMM LegendMM   100.46     LegendNANA
14:00 5.3 -1.4 62   LegendMM LegendMM   100.40     LegendNANA
15:00 4.8 -3.0 57   LegendMM LegendMM   100.38     LegendNANA
16:00 5.0 -2.4 59   LegendMM LegendMM   100.35     LegendNANA
17:00 4.3 -2.5 61   LegendMM LegendMM   100.36     LegendNANA
18:00 4.3 -2.0 64   LegendMM LegendMM   100.38     LegendNANA
19:00 4.1 -1.5 67   LegendMM LegendMM   100.38     LegendNANA
20:00 4.2 -2.5 62   LegendMM LegendMM   100.36     LegendNANA
21:00 4.1 -1.8 65   LegendMM LegendMM   100.34     LegendNANA
22:00 3.5 -0.5 75   LegendMM LegendMM   100.32     LegendNANA
23:00 3.5 -0.2 77   LegendMM LegendMM   100.29     LegendNANA

Notes on Data Quality.

Legend

  • E = Estimated
  • M = Missing
  • NA = Not Available*
  • [empty] = Indicates an unobserved value
Date modified: